Wind_Speed
20 21 22 23 24 25 26 27 28 30 31 33 35 38 40 42 44 46 48 50 51 53 54 55 57 59 61 63 65 67 69 72 74 75 76 75 74 73 72 71 70 69 67
22 23 24 25 26 27 28 29 30 32 33 35 37 39 42 44 46 48 50 52 53 55 56 57 59 61 63 65 67 69 71 73 75 77 77 75 71 69 67 67 67 66 65
24 25 26 28 29 29 30 32 33 34 36 37 40 42 44 46 48 50 52 53 55 56 58 59 61 63 65 67 68 70 72 74 76 77 78 77 74 70 65 63 63 63 61
26 27 28 30 31 32 33 34 36 37 39 40 42 45 47 48 50 52 54 55 57 58 60 61 63 65 67 68 70 72 73 74 75 76 76 76 75 73 68 62 60 59 59
28 30 31 32 33 35 36 37 38 40 42 44 45 47 49 51 52 54 56 57 58 60 61 63 64 66 68 70 71 73 74 75 75 75 74 73 72 72 72 66 60 56 56
31 32 33 35 36 37 39 40 41 43 45 46 48 50 51 53 55 56 57 59 60 61 62 64 66 67 69 71 72 73 74 75 74 74 73 72 71 70 70 68 62 57 53
33 35 36 37 39 40 42 43 44 46 48 49 51 52 54 55 57 58 59 60 61 63 64 65 66 68 70 72 72 73 74 74 73 73 72 71 69 69 68 67 63 58 53
36 37 39 40 42 43 44 46 47 49 50 52 53 55 56 57 58 60 61 61 62 64 65 66 67 69 71 72 73 73 73 73 72 71 70 69 68 67 67 66 64 60 53
39 40 42 43 45 46 47 49 50 52 53 55 56 57 58 59 60 61 62 63 64 65 66 67 68 70 71 72 72 72 73 72 71 70 69 67 66 66 65 64 63 62 56
42 44 46 47 48 49 51 52 53 55 56 57 58 59 60 61 62 62 63 64 65 66 67 67 68 70 71 72 72 72 72 71 70 69 67 66 65 64 63 62 61 60 58
47 48 49 50 51 52 53 55 56 57 58 59 60 60 61 62 63 63 64 65 65 67 67 67 69 71 71 72 72 71 71 70 69 68 66 65 64 63 62 61 59 57 56
49 50 51 52 53 54 55 57 57 58 60 61 62 62 63 64 64 64 65 65 66 67 67 68 69 70 71 71 71 70 70 69 68 67 65 64 63 62 61 60 57 55 54
50 52 53 53 54 56 57 58 59 60 61 62 63 63 64 65 65 65 65 66 66 67 67 68 69 70 70 71 70 70 69 68 67 66 64 63 62 60 60 59 56 54 52
52 53 54 55 56 57 58 59 60 61 62 63 63 64 65 66 65 65 66 66 66 67 67 68 68 69 70 70 69 69 68 67 66 64 63 62 61 60 59 57 55 52 50
54 55 56 57 58 59 59 60 61 62 62 63 64 65 66 66 66 66 65 65 65 66 67 67 67 68 68 69 68 68 67 66 65 63 62 61 61 59 58 57 54 51 49
57 57 58 59 60 60 61 61 62 63 64 65 66 66 67 67 67 66 65 65 65 65 65 66 66 66 67 67 67 67 66 65 64 62 61 60 59 58 57 56 53 50 48
59 60 60 61 62 62 63 64 65 66 66 67 67 68 68 67 66 65 65 64 64 64 64 64 64 65 66 66 66 66 65 64 63 62 61 59 58 57 55 54 51 48 46
62 63 64 64 64 65 66 67 66 66 67 68 68 68 67 66 65 64 63 63 63 63 63 63 63 63 64 65 65 65 64 63 62 62 61 59 57 56 54 53 50 47 44
65 66 66 67 66 67 68 68 68 68 68 68 68 68 66 64 63 62 61 61 61 61 61 61 61 62 63 63 64 63 63 62 61 61 60 59 56 54 53 52 49 45 42
66 67 67 67 68 68 69 69 68 67 67 66 65 63 61 60 59 59 59 58 58 58 58 59 59 60 60 61 62 62 62 61 60 59 58 57 55 53 51 50 48 44 41
66 66 67 67 67 67 66 65 64 63 62 61 59 58 57 56 56 56 55 55 54 54 55 56 57 58 58 59 61 61 60 60 59 58 57 55 54 51 49 49 47 44 40
64 64 64 63 62 62 61 59 58 58 57 56 56 55 55 54 54 54 53 52 52 52 54 54 55 56 57 57 59 59 59 59 58 57 56 54 52 50 47 46 45 43 40
61 60 59 57 56 56 56 54 54 54 53 54 54 54 53 53 54 53 52 51 51 51 51 52 53 54 55 56 57 58 57 57 57 56 54 52 51 48 46 45 44 42 38
56 55 53 53 52 52 52 53 53 53 53 54 54 53 53 53 53 52 50 49 49 49 49 50 51 52 52 54 55 56 56 55 55 54 52 51 49 47 45 44 43 41 37
53 53 53 52 52 53 53 54 54 54 54 54 54 54 54 53 52 51 50 49 47 47 47 48 49 50 51 52 53 54 54 54 53 52 51 49 48 46 45 43 42 39 35
53 53 53 53 53 53 54 55 55 55 55 55 55 54 54 53 52 51 50 48 47 46 46 47 47 48 49 50 51 52 52 52 51 51 49 48 47 45 44 42 40 37 34
Wind_Direction
295 300 302 305 307 309 311 314 317 319 321 323 324 325 326 327 327 327 326 326 326 325 325 324 324 324 324 324 324 323 322 322 322 322 322 321 320 318 317 315 313 311 309
294 298 300 302 304 306 309 311 314 316 319 321 322 323 324 325 326 326 326 326 325 325 325 325 325 325 326 325 325 325 324 324 324 324 324 324 323 320 319 317 316 314 312
295 297 299 301 303 304 306 309 311 313 315 317 319 321 322 323 323 324 325 325 325 325 325 325 325 326 327 327 326 326 326 325 325 325 325 325 325 324 324 321 319 317 315
294 296 298 299 301 303 305 307 309 311 313 315 317 319 320 321 322 322 323 324 324 324 325 325 326 327 328 328 327 327 327 327 326 326 326 325 325 325 326 326 323 320 318
293 295 296 298 300 301 303 305 307 309 311 313 315 317 318 319 321 321 321 322 323 323 324 325 326 327 328 328 328 328 327 327 327 327 326 326 326 326 327 328 327 324 321
293 294 295 297 298 300 302 304 306 308 310 312 313 315 316 317 319 320 320 321 321 322 323 324 325 327 328 328 328 328 328 328 328 327 327 327 326 326 326 327 328 327 325
292 292 293 295 297 298 300 302 304 306 308 310 312 313 315 316 317 318 319 319 320 321 322 323 325 326 327 328 328 328 328 328 328 327 327 327 327 327 327 327 328 328 327
290 290 292 293 294 297 299 301 303 305 307 309 311 312 314 315 316 317 318 318 319 320 321 323 324 326 327 328 328 328 328 328 328 328 327 327 327 327 327 327 327 328 329
288 289 290 291 293 295 297 300 302 304 306 308 309 311 312 313 315 316 316 317 318 319 320 322 323 325 326 327 328 328 328 328 328 328 328 328 327 327 327 327 327 327 328
287 288 290 291 293 295 297 299 301 303 305 307 308 310 311 312 313 314 315 316 317 317 319 320 322 324 325 326 327 328 328 328 328 328 328 328 328 328 327 327 326 326 326
288 291 292 293 295 296 297 299 301 302 304 306 307 309 310 311 312 313 314 315 316 317 318 320 321 322 324 325 326 327 327 328 328 328 328 328 328 328 328 327 326 326 325
293 294 294 294 295 296 297 298 300 302 303 305 307 308 309 310 311 312 313 314 315 317 319 320 321 322 323 324 326 327 327 328 328 328 328 328 328 328 328 327 326 325 324
294 294 294 295 295 296 297 298 299 301 302 304 306 307 308 309 311 312 313 314 315 316 318 320 321 322 323 324 325 326 327 328 328 328 329 329 328 328 328 327 326 325 324
294 294 295 295 296 297 297 298 299 301 302 304 305 306 307 308 310 311 313 314 315 316 318 319 320 321 322 323 324 326 327 328 328 329 329 329 329 328 328 328 326 325 324
295 296 296 297 298 298 299 300 300 301 303 304 305 305 306 307 309 311 312 314 315 316 318 319 320 320 322 323 324 326 327 328 328 329 328 329 329 328 328 328 327 325 324
297 298 298 299 299 300 300 300 301 302 303 304 305 305 306 307 309 310 312 313 314 316 318 318 319 320 321 322 324 325 327 328 328 329 328 329 329 328 328 329 327 325 324
298 298 299 299 300 300 300 300 301 303 303 304 305 305 306 308 309 310 311 312 313 315 317 318 319 319 321 322 323 325 327 328 328 329 329 329 329 328 329 329 328 326 324
299 299 300 300 300 300 300 301 302 303 303 304 304 305 306 307 308 309 311 311 313 314 315 317 318 319 320 322 323 325 327 328 328 329 329 329 329 329 329 330 329 327 325
300 300 300 300 300 300 300 301 302 302 303 303 304 305 306 306 307 309 309 310 311 313 314 316 317 318 320 321 323 324 326 328 328 328 329 329 330 329 329 330 330 328 326
299 300 300 300 300 301 301 302 303 304 304 305 306 306 307 307 308 308 308 310 311 312 314 315 317 318 319 321 322 324 326 327 328 328 329 329 330 330 330 331 330 329 327
301 300 300 300 300 301 302 303 304 305 305 306 307 307 308 309 309 309 309 310 311 312 313 314 316 317 319 320 322 324 326 327 328 329 329 330 330 330 330 331 331 329 328
301 301 301 302 302 302 303 304 304 305 306 307 308 308 309 310 311 311 310 310 310 311 312 313 315 316 318 320 322 324 325 327 328 329 330 330 330 331 331 332 331 330 328
302 302 303 304 305 305 305 305 306 306 307 308 308 308 309 310 311 311 312 311 311 311 312 313 315 316 318 320 322 323 325 327 328 329 330 330 331 332 332 332 332 331 329
304 304 305 306 307 308 308 307 307 307 307 308 308 308 308 309 310 310 311 311 311 311 312 313 314 316 318 320 321 323 325 327 328 330 330 331 332 333 333 332 332 332 331
306 307 307 307 308 308 308 308 307 307 307 307 307 307 307 308 308 309 311 311 311 311 311 312 313 316 318 320 322 323 325 327 329 330 331 331 332 333 333 333 333 333 332
306 306 307 307 308 308 308 308 308 308 308 307 307 307 307 307 307 308 309 310 310 311 311 311 313 315 317 320 322 323 325 327 329 331 332 332 333 333 333 333 333 333 332
Height
5823 5820 5817 5814 5811 5808 5804 5800 5795 5791 5786 5781 5775 5769 5763 5757 5750 5743 5736 5728 5720 5712 5703 5694 5685 5676 5666 5656 5646 5635 5623 5610 5598 5586 5572 5556 5538 5519 5502 5486 5471 5457 5444
5818 5815 5812 5809 5806 5802 5798 5794 5789 5784 5779 5774 5768 5762 5756 5749 5742 5735 5727 5719 5710 5702 5693 5683 5673 5663 5653 5642 5631 5620 5607 5593 5579 5566 5553 5540 5528 5510 5491 5472 5455 5440 5427
5813 5810 5807 5803 5800 5796 5792 5787 5782 5777 5772 5766 5761 5754 5748 5741 5733 5726 5718 5709 5700 5691 5682 5672 5662 5651 5640 5628 5616 5604 5591 5577 5562 5546 5531 5516 5504 5494 5482 5463 5444 5427 5412
5807 5804 5801 5797 5793 5789 5785 5780 5775 5770 5764 5758 5752 5746 5739 5732 5724 5716 5708 5699 5690 5680 5671 5660 5650 5639 5627 5615 5602 5589 5576 5561 5546 5530 5513 5497 5481 5468 5461 5452 5433 5415 5399
5801 5797 5794 5790 5786 5782 5778 5773 5767 5762 5756 5750 5744 5737 5730 5723 5715 5706 5698 5689 5679 5670 5659 5649 5638 5626 5614 5602 5589 5575 5561 5546 5531 5515 5500 5484 5467 5451 5437 5430 5420 5406 5390
5794 5790 5787 5783 5779 5774 5770 5764 5759 5754 5747 5741 5734 5727 5720 5713 5704 5696 5687 5678 5668 5658 5648 5637 5626 5614 5602 5589 5575 5561 5547 5532 5516 5501 5485 5470 5455 5441 5425 5413 5403 5393 5381
5787 5783 5779 5775 5771 5766 5761 5756 5750 5744 5738 5732 5725 5718 5710 5702 5694 5685 5676 5667 5657 5647 5636 5625 5614 5602 5589 5576 5562 5548 5533 5518 5503 5488 5472 5457 5442 5427 5413 5399 5389 5379 5370
5778 5774 5770 5766 5762 5757 5752 5746 5741 5735 5728 5721 5715 5707 5699 5691 5683 5674 5665 5655 5645 5635 5624 5613 5602 5590 5577 5564 5550 5536 5521 5506 5491 5475 5460 5446 5431 5416 5402 5388 5375 5366 5359
5769 5765 5761 5756 5752 5747 5742 5736 5730 5724 5718 5711 5704 5696 5688 5680 5671 5662 5653 5643 5633 5623 5612 5601 5589 5577 5565 5552 5538 5524 5509 5494 5479 5464 5449 5435 5420 5406 5392 5378 5364 5352 5344
5759 5755 5751 5746 5742 5737 5731 5725 5719 5713 5707 5699 5692 5685 5677 5668 5659 5651 5641 5631 5621 5611 5600 5589 5577 5565 5553 5540 5526 5512 5498 5483 5468 5453 5439 5424 5410 5396 5382 5369 5356 5343 5332
5749 5745 5741 5736 5731 5726 5720 5714 5708 5702 5695 5688 5680 5673 5665 5656 5647 5638 5629 5619 5609 5598 5588 5577 5565 5553 5541 5528 5515 5501 5486 5472 5457 5442 5428 5414 5400 5387 5373 5360 5348 5336 5324
5739 5735 5730 5725 5720 5714 5708 5702 5696 5689 5683 5675 5668 5660 5652 5643 5634 5626 5616 5606 5596 5586 5576 5565 5553 5541 5529 5516 5503 5490 5475 5461 5447 5432 5418 5405 5391 5378 5364 5352 5340 5328 5317
5728 5723 5718 5713 5707 5702 5696 5690 5684 5677 5670 5663 5655 5648 5639 5630 5622 5613 5603 5593 5584 5574 5563 5553 5542 5530 5518 5505 5492 5479 5465 5450 5436 5422 5408 5395 5381 5369 5356 5343 5331 5320 5309
5715 5710 5706 5700 5695 5689 5683 5677 5671 5664 5657 5649 5642 5634 5625 5617 5608 5599 5590 5581 5571 5561 5551 5540 5530 5518 5506 5494 5481 5468 5454 5440 5426 5412 5399 5386 5372 5360 5347 5335 5323 5312 5302
5703 5698 5693 5688 5683 5677 5671 5664 5658 5650 5643 5636 5628 5620 5611 5603 5595 5586 5577 5568 5558 5549 5539 5528 5518 5507 5495 5483 5470 5457 5444 5430 5417 5403 5390 5376 5363 5350 5338 5325 5314 5303 5293
5691 5686 5681 5675 5670 5664 5657 5651 5644 5637 5629 5622 5614 5605 5597 5589 5580 5572 5563 5554 5546 5536 5526 5516 5506 5495 5484 5472 5459 5447 5434 5421 5407 5394 5381 5368 5355 5342 5329 5317 5305 5294 5284
5678 5673 5668 5662 5656 5650 5643 5636 5630 5622 5614 5606 5598 5590 5582 5574 5566 5558 5550 5541 5532 5523 5514 5504 5494 5484 5473 5461 5449 5436 5424 5411 5397 5385 5372 5359 5346 5333 5321 5310 5299 5288 5277
5665 5659 5653 5647 5642 5635 5627 5620 5614 5606 5599 5591 5583 5574 5566 5559 5551 5543 5536 5527 5519 5511 5502 5492 5483 5473 5462 5450 5439 5426 5414 5401 5388 5375 5362 5350 5338 5324 5313 5302 5291 5281 5271
5650 5644 5638 5631 5625 5618 5610 5604 5597 5590 5582 5574 5566 5559 5551 5544 5537 5529 5521 5514 5506 5498 5489 5480 5471 5462 5451 5440 5428 5416 5404 5392 5379 5366 5353 5341 5329 5317 5305 5294 5284 5274 5265
5636 5628 5622 5615 5608 5601 5593 5587 5580 5573 5566 5558 5551 5544 5536 5529 5522 5515 5508 5500 5493 5485 5477 5469 5460 5451 5440 5429 5418 5406 5395 5383 5371 5358 5345 5332 5320 5308 5296 5286 5276 5266 5258
5619 5612 5605 5598 5592 5584 5577 5571 5564 5557 5550 5543 5537 5530 5523 5515 5509 5501 5494 5487 5480 5473 5466 5458 5449 5440 5430 5419 5408 5397 5385 5373 5361 5349 5337 5325 5312 5301 5289 5278 5268 5259 5251
5603 5596 5589 5583 5576 5569 5562 5556 5549 5543 5536 5529 5522 5516 5509 5502 5495 5489 5482 5475 5468 5461 5454 5446 5438 5429 5419 5409 5399 5387 5376 5364 5352 5341 5328 5317 5305 5294 5283 5272 5262 5253 5244
5588 5581 5574 5568 5562 5555 5548 5541 5536 5529 5523 5516 5509 5503 5496 5490 5483 5476 5469 5463 5456 5449 5442 5435 5427 5418 5409 5399 5389 5378 5367 5355 5343 5332 5320 5309 5298 5287 5277 5267 5257 5247 5239
5573 5567 5561 5555 5549 5542 5535 5528 5522 5516 5510 5504 5497 5490 5484 5477 5471 5464 5458 5451 5444 5438 5431 5424 5416 5408 5399 5389 5380 5369 5358 5347 5335 5324 5313 5302 5291 5280 5271 5261 5251 5242 5233
5561 5555 5549 5543 5537 5530 5523 5516 5509 5503 5497 5490 5484 5477 5471 5464 5458 5452 5446 5439 5433 5426 5420 5413 5406 5398 5389 5380 5370 5360 5350 5339 5328 5317 5306 5295 5285 5274 5264 5254 5245 5236 5228
5549 5543 5536 5530 5524 5517 5510 5503 5496 5489 5483 5476 5470 5464 5457 5451 5445 5439 5434 5427 5422 5415 5409 5402 5395 5388 5380 5370 5361 5352 5341 5331 5320 5309 5299 5289 5278 5268 5258 5249 5239 5231 5223